Starlink 33783

operational
NORAD ID: 63712 Int'l Des: 2025-087 Owner: SPXS Country: US Constellation: starlink
LEOCIRCULAR

Über Starlink 33783

Beschreibung wird geladen...

Live-Position

3D-Globus wird geladen...

Nächste Überflüge

Höhenverlauf

Altitude vs Time

uPlot chart will show altitude changes over time

Zweizeiliger Elementsatz

1 63712U 25087R 25258.16829768 .00056484 00000-0 19025-2 0 9996
2 63712 53.1582 315.0417 0001184 83.5255 276.5880 15.30237969 22328
Epoch: 15. Sept. 2025 • Age: 28 hours

Aktueller Status

Höhe 487.3 km
Geschwindigkeit 7.62 km/s
Subsatellitenpunkt -36.93°S, 53.05°E
Startdatum 28. Apr. 2025
Alter 0.3 years
Typ internet

Technische Details

Klassifizierung Payload
Masse 575.00 kg
Trockenmasse 530.00 kg
Gesamtmasse 575.00 kg
Länge 0.30 m
Durchmesser 4.10 m
Spannweite 29.00 m
Form Box + pan
Hersteller SPXS
Bus-Typ Starlink V2MO
Phasenstatus In Orbit
Besitzer/Staat SPXS/US

Große Konstellationen

Loading constellations...